Presure
357 269 338 333 325 321 317 311 316 307 314 305 305 300 291 286 284 282 281 278 275 277 279 282 287 296 301 292 276 269 268 264 259 256 251 248 249 254 251 243 242 242 253 254
274 289 279 268 259 258 259 252 248 246 242 246 242 242 242 235 231 226 219 224 222 213 209 209 211 212 213 235 274 286 294 299 304 305 303 294 293 262 260 259 286 283 276 269
247 244 242 235 232 234 234 234 235 235 236 232 230 229 228 228 222 222 225 227 227 227 230 230 232 225 226 230 231 224 227 237 244 246 249 254 259 258 253 246 233 230 234 239
413 415 381 344 255 254 257 259 261 274 275 273 273 280 285 275 266 261 291 313 313 318 325 326 322 322 331 347 359 319 303 240 240 303 302 302 302 302 342 339 335 330 330 331
311 319 328 315 310 310 315 321 325 324 322 320 316 314 313 312 312 308 301 293 289 285 370 387 384 367 362 377 352 345 334 329 327 324 322 321 319 314 314 313 313 312 310 306
284 291 294 290 309 288 287 283 283 283 284 284 285 286 288 283 289 335 392 381 387 392 381 372 356 352 325 319 323 315 312 304 304 302 295 291 288 284 283 285 286 286 284 284
418 420 431 410 401 411 417 381 376 369 364 359 336 340 362 383 387 385 374 377 371 363 342 323 315 309 304 302 296 291 288 283 279 278 277 275 274 274 274 275 278 279 279 279
411 400 405 405 416 433 434 422 410 401 393 389 384 379 376 367 365 357 338 323 308 304 302 299 289 283 282 278 272 267 266 266 267 267 267 271 274 275 274 273 275 284 286 287
352 345 340 335 342 350 364 381 391 399 384 378 374 371 359 338 324 302 298 290 285 277 274 266 264 264 262 261 262 263 264 266 266 266 274 282 285 288 290 311 312 330 329 327
321 328 333 331 323 322 330 343 348 356 364 339 330 315 298 289 284 276 271 264 263 261 259 257 258 259 259 262 265 271 274 276 278 288 299 314 306 306 329 323 317 334 336 452
326 336 344 348 357 353 351 360 345 321 305 290 284 276 270 265 261 259 257 256 255 253 252 257 261 260 262 271 270 265 281 305 306 301 308 324 317 309 361 428 422 431 442 432
357 339 331 317 311 305 294 286 280 272 269 262 259 257 255 256 254 251 250 260 264 257 253 252 266 264 268 256 293 300 299 291 320 318 304 401 434 424 411 405 403 425 425 416
297 285 281 271 271 262 259 258 260 257 256 256 256 252 247 252 258 261 258 248 247 259 258 260 269 267 286 279 301 295 292 315 293 451 437 421 412 404 397 385 389 395 407 396
270 268 260 258 256 257 254 252 252 251 248 250 247 256 263 265 256 246 244 259 254 251 258 271 268 280 291 302 293 311 299 309 444 421 399 396 396 387 391 379 366 364 362 390
260 259 256 252 248 249 243 248 243 272 267 257 257 270 263 254 245 254 256 252 250 261 273 266 277 294 303 290 309 296 302 437 415 399 391 391 381 381 371 367 356 354 374 376
250 250 248 249 242 241 236 244 270 262 251 260 265 262 249 250 255 256 258 253 262 265 263 275 288 298 289 308 296 290 440 416 404 406 393 384 377 365 365 359 359 358 385 361
247 248 245 245 232 247 268 270 256 251 263 258 259 261 253 260 257 261 253 255 262 271 276 285 295 291 302 297 284 448 427 411 411 404 390 377 370 364 361 356 354 362 379 370
247 249 245 245 255 269 261 255 250 270 281 252 254 260 260 262 264 262 263 273 271 282 277 306 298 284 302 281 347 440 419 402 409 396 385 376 365 364 358 354 350 354 350 363
239 249 258 263 253 264 269 274 285 260 253 261 267 270 268 267 269 277 279 269 275 281 313 299 279 305 278 295 456 433 412 386 377 394 385 375 364 364 357 352 350 349 345 355
256 260 255 266 273 280 271 270 271 275 278 263 259 269 286 284 282 274 267 277 283 316 295 283 303 278 279 326 448 431 408 376 370 389 387 377 366 363 356 350 348 345 341 347
250 253 257 240 224 234 235 254 251 250 253 283 293 286 274 269 265 273 280 289 316 294 292 297 283 273 306 465 446 429 404 375 372 369 385 373 369 361 359 350 345 340 338 353
249 251 256 255 234 236 245 259 267 277 280 279 268 261 266 273 280 291 308 321 288 287 297 288 267 291 332 460 445 422 401 372 367 380 373 377 369 361 358 354 348 342 336 337
247 254 253 247 247 243 252 270 277 283 262 254 255 259 266 279 294 319 302 281 286 296 291 270 274 315 413 442 428 409 390 379 374 378 374 370 362 362 359 353 353 349 346 342
249 259 250 237 241 253 262 273 286 254 250 250 252 256 266 287 322 287 280 287 292 293 273 268 303 330 447 429 414 402 394 386 383 384 377 279 360 360 358 360 358 354 357 353
257 249 238 239 243 260 273 270 252 249 253 254 262 270 287 321 293 285 290 296 291 275 268 278 316 433 443 428 417 409 404 403 400 390 379 368 361 361 361 362 364 363 366 370
255 255 241 244 271 272 252 248 253 267 276 281 287 301 323 304 287 292 282 288 286 268 268 302 347 453 449 439 428 418 414 413 407 392 379 368 364 362 368 370 362 363 375 362
252 239 252 274 256 247 246 258 276 290 294 307 313 327 296 289 291 279 288 284 270 268 279 321 466 479 468 454 442 431 424 416 404 390 375 369 366 371 361 358 358 376 366 367
Wind_Speed
67 78 63 60 59 63 64 64 65 58 60 63 67 65 66 69 68 68 68 66 66 68 69 70 72 75 83 93 99 101 104 107 109 112 113 114 115 117 118 119 119 119 123 122
69 70 72 70 71 77 77 76 77 76 75 76 76 74 74 75 75 75 76 75 76 79 82 84 86 89 90 88 84 85 87 90 92 94 96 98 100 116 119 121 109 106 105 106
79 82 82 77 85 85 85 86 84 83 82 82 81 80 80 80 81 82 83 84 85 87 89 90 92 93 95 96 95 95 95 94 94 94 95 97 99 102 103 105 107 108 111 113
52 50 59 62 88 91 92 93 95 93 91 89 89 89 89 89 88 88 81 77 77 74 71 71 72 72 72 66 58 70 72 100 101 71 73 73 75 78 56 58 61 67 68 68
60 60 57 55 59 63 62 62 64 65 64 63 63 64 65 65 64 66 67 68 69 70 47 41 39 41 43 39 40 41 45 49 49 50 50 51 53 56 56 57 60 62 66 70
72 71 67 67 69 71 71 69 70 70 69 68 68 68 67 67 67 60 38 37 38 34 29 28 29 28 33 37 37 40 42 48 49 50 51 54 58 61 63 65 68 70 72 74
31 36 36 32 38 43 41 52 55 55 53 52 58 55 47 38 36 30 27 26 23 20 19 23 26 29 31 33 36 38 42 46 51 55 58 62 66 69 72 74 76 77 79 80
16 17 17 21 25 28 31 35 35 34 32 30 29 28 24 22 21 16 11 10 14 17 19 21 24 28 31 35 40 46 51 55 59 63 67 70 72 74 76 77 80 83 84 85
14 14 14 14 15 16 17 13 13 14 16 17 12 7 7 5 3 7 8 10 13 17 21 26 31 34 39 44 49 53 57 61 65 67 72 75 77 79 80 84 85 83 83 84
14 16 13 10 8 9 8 7 5 4 1 6 8 8 5 1 3 7 11 16 19 24 29 35 39 42 46 50 54 58 62 66 69 73 76 76 78 80 78 78 79 74 74 31
14 18 18 15 13 6 3 3 11 12 12 9 8 4 3 6 9 14 19 23 27 31 35 39 43 46 50 54 57 59 63 66 68 70 72 74 75 76 61 41 39 34 28 27
14 13 19 20 21 20 19 18 16 13 9 4 4 7 10 13 17 21 26 29 31 35 39 43 46 50 54 54 60 62 64 65 70 70 71 49 38 37 36 37 35 28 26 24
19 18 19 15 16 12 9 9 9 6 5 6 9 12 18 21 24 25 28 33 36 39 43 47 51 54 58 60 61 63 66 67 68 37 36 36 35 34 31 32 32 27 24 24
14 14 10 10 9 9 7 6 7 9 12 15 18 20 21 22 26 31 35 37 39 43 48 52 55 59 61 60 62 66 66 66 35 36 36 34 31 30 28 26 30 30 27 24
10 10 9 8 9 9 11 14 16 15 16 20 22 22 24 28 33 36 38 41 44 49 53 55 60 60 59 61 64 65 66 35 36 34 32 30 28 27 27 26 27 29 27 25
8 6 6 8 11 13 15 20 18 18 21 25 26 27 30 34 37 39 42 45 50 53 55 60 60 58 60 62 63 66 35 35 34 30 27 27 26 25 26 26 26 25 25 27
7 7 9 12 13 19 23 20 21 23 26 28 30 32 36 38 41 43 45 49 53 57 59 61 58 59 63 61 63 34 34 32 29 25 24 24 25 24 24 25 24 23 23 26
10 12 14 17 22 23 21 23 25 28 28 32 35 37 40 43 45 48 51 54 56 58 61 56 58 61 60 62 62 33 32 30 25 23 22 22 23 23 23 23 23 22 23 24
12 17 20 21 20 25 27 28 28 30 33 35 38 40 42 45 48 49 51 55 58 60 56 56 58 60 60 66 33 30 30 30 28 22 21 21 22 22 22 22 21 21 22 23
19 19 20 25 28 29 29 30 31 33 34 37 40 42 43 44 46 50 54 57 59 58 55 57 59 58 63 69 30 30 27 30 28 22 21 21 20 21 21 21 20 20 21 22
17 21 23 21 23 25 28 33 35 38 40 41 42 40 43 46 51 53 56 58 57 53 56 58 57 60 66 33 28 28 26 29 27 25 21 21 21 20 20 20 20 20 20 21
19 23 25 25 27 30 34 36 37 39 39 39 41 45 48 52 55 57 59 53 52 56 57 56 59 66 71 32 26 26 27 29 28 23 22 21 20 20 20 20 20 20 21 21
20 24 25 27 29 32 35 37 40 40 38 43 47 50 53 56 58 58 51 52 56 57 57 56 62 71 49 33 30 27 28 28 27 24 21 20 19 19 20 20 20 21 22 21
23 27 26 28 32 36 40 43 45 39 43 47 51 55 58 59 56 51 53 56 56 57 57 60 68 73 36 34 31 29 27 26 25 22 20 17 19 18 18 18 19 20 20 20
27 27 28 32 36 39 42 42 42 45 48 52 55 58 59 57 52 54 56 56 57 55 58 64 72 51 36 33 30 28 26 23 20 19 18 17 17 16 16 17 17 17 17 17
28 30 32 35 41 41 40 43 47 52 55 57 59 58 55 50 52 55 53 56 56 57 62 70 75 43 34 30 27 25 23 19 16 15 15 14 14 14 14 14 12 12 12 10
30 32 35 42 36 39 43 50 56 57 58 57 54 50 48 51 52 52 56 55 56 60 65 75 47 33 28 25 22 19 16 13 11 11 11 11 12 11 10 10 9 8 6 7
Wind_Direction
284 286 279 277 276 274 272 272 273 274 274 268 269 270 269 270 270 271 271 270 269 269 268 267 267 266 265 264 264 264 264 265 266 266 267 268 268 270 270 270 271 271 273 273
291 288 284 283 284 280 280 280 280 280 278 278 277 278 276 276 275 274 273 272 270 268 267 267 268 269 269 269 267 268 268 269 269 269 269 268 268 267 268 269 272 270 269 270
289 286 285 286 282 282 281 281 281 279 277 277 277 275 275 274 276 276 275 274 272 270 268 268 268 268 269 268 268 269 268 268 268 269 270 270 270 270 270 270 271 272 272 271
283 281 277 277 277 277 277 277 276 275 274 274 274 273 272 271 272 273 274 275 275 275 276 275 274 273 272 270 267 266 268 268 270 272 272 271 270 270 272 272 272 272 272 272
288 285 285 282 277 275 275 275 273 272 273 273 272 272 273 274 275 275 276 276 277 277 274 268 268 266 269 265 265 265 264 268 269 269 270 272 272 274 275 276 275 274 273 272
291 286 284 279 275 274 275 275 274 275 275 273 272 272 273 275 276 278 279 277 278 272 269 266 267 271 270 269 266 266 269 271 274 276 275 276 275 274 273 273 273 272 271 271
284 281 284 286 280 277 267 266 269 272 272 271 272 274 277 278 277 278 273 278 272 265 262 262 265 266 269 274 277 279 279 278 276 276 275 274 273 273 273 274 275 275 275 276
313 311 300 292 289 287 278 272 274 272 269 265 262 264 272 273 268 264 260 257 265 270 277 283 284 285 286 285 280 277 276 275 276 276 276 277 278 278 278 279 278 277 277 276
312 319 324 330 333 331 322 311 291 278 261 263 269 272 269 231 210 243 268 289 293 292 288 282 281 282 281 279 279 280 281 281 281 282 281 280 280 281 281 280 278 277 276 275
311 322 328 326 298 296 308 323 317 322 134 132 125 122 137 46 325 314 302 291 287 285 284 282 283 285 286 285 285 285 285 285 285 286 285 284 283 283 283 281 279 278 277 275
331 331 327 328 329 332 351 35 103 103 97 84 73 56 9 312 297 286 283 284 285 287 288 289 290 290 290 292 292 290 291 291 290 289 289 289 287 286 284 283 281 279 273 268
341 66 80 84 83 83 83 79 76 71 64 40 343 303 291 290 289 289 290 291 291 291 291 293 298 297 298 294 299 298 297 296 297 295 293 291 289 287 285 282 279 275 270 263
88 84 81 74 70 65 49 43 40 17 341 314 306 298 298 300 298 295 295 293 296 301 302 303 305 304 305 303 303 302 303 301 300 297 295 292 289 287 283 280 278 273 264 258
75 73 63 59 50 45 28 7 340 326 316 310 307 304 298 299 295 297 300 304 304 304 308 308 308 310 309 307 307 307 306 305 300 298 294 291 289 285 281 275 275 275 268 249
68 62 47 31 10 354 341 336 331 317 309 308 306 310 305 301 303 305 306 306 307 309 312 312 312 312 310 310 311 309 310 304 301 298 294 291 288 284 281 275 271 271 263 253
39 30 3 352 337 329 326 324 325 315 311 315 315 310 306 306 307 308 309 310 312 314 315 315 314 312 313 315 313 313 309 306 303 300 295 290 286 283 279 276 272 265 243 251
356 333 329 328 317 323 328 325 318 314 316 314 313 310 311 310 312 313 312 315 315 316 316 317 315 314 317 317 316 314 311 308 304 299 293 289 285 282 276 274 273 267 249 242
317 322 324 321 321 327 323 318 316 319 320 317 317 315 316 316 315 315 316 315 316 317 317 318 316 318 321 318 326 314 311 309 302 297 291 286 283 281 277 274 273 269 264 254
321 321 323 327 322 322 323 324 324 321 322 320 318 317 317 316 316 316 316 316 318 319 322 319 320 323 321 323 316 313 311 311 307 295 289 285 283 279 277 275 272 268 266 260
322 327 328 332 331 329 328 326 323 322 323 323 324 321 319 319 319 317 317 318 320 325 322 322 325 323 324 331 315 310 310 311 308 297 289 285 279 276 275 274 273 269 266 262
324 330 332 317 318 321 325 329 327 325 325 325 326 325 323 321 319 319 320 323 326 324 325 326 326 325 330 320 313 308 308 309 307 302 288 285 279 278 272 270 271 271 271 269
326 330 329 330 319 324 328 326 326 329 329 329 327 325 324 324 322 324 326 329 327 327 328 328 327 328 335 319 312 306 306 308 305 297 292 282 279 277 275 270 269 268 268 270
326 326 327 325 324 325 327 331 333 332 329 327 327 327 327 327 328 329 330 329 329 330 330 328 329 333 329 319 315 311 308 304 301 295 287 283 279 275 273 273 270 268 267 267
322 326 325 318 323 327 331 333 333 327 327 327 327 328 327 329 329 330 330 330 331 331 329 329 334 336 324 322 316 311 305 299 295 287 282 292 278 277 275 273 270 269 270 269
325 324 319 322 325 329 333 330 328 329 328 326 325 324 326 329 329 330 331 331 332 330 330 332 336 333 327 321 313 308 303 298 288 280 277 275 277 279 277 275 274 273 271 270
325 324 321 323 332 333 329 328 329 328 327 325 325 325 328 328 330 330 330 331 332 330 332 335 337 330 323 315 309 304 301 294 281 271 267 270 274 276 273 270 268 267 263 250
323 318 324 331 330 328 329 332 330 328 326 325 326 329 331 331 331 330 332 333 330 333 333 338 330 322 315 310 306 301 295 285 271 260 260 266 270 267 262 262 258 244 236 208